Location: *
(49.5667°N, 1.3667°W)
Time: 09:50:59
(UTC+00:00)

USA 234 - Pass Details

Date: 20 September 2019
Orbit: 1103 x 1105 km, 123.0° (Epoch: 17 October)

Event Time Altitude Azimuth Distance (km) Brightness Sun altitude
Exits shadow 22:18:54 60° 6° (N) 1,250 3.6 -35.1°
Drops below altitude 10° 22:25:00 10° 302° (WNW) 2,968 6.1 -35.6°
Sets 22:27:30 0° 299° (WNW) 3,927 6.9 -35.8°
